VBV780 KOSH-KMDW

Flight info

Callsign VBV780
Flight time N/A
Altitude FL095
Route KSBM KMKE
Aircraft C172/L-SFG/C

Departure

Time 2026-05-07 17:41
Airport Wittman Regional Airport (KOSH)

Arrival

Time N/A
Airport Chicago Midway International Airport (KMDW)
Time Latitude Longitude Altitude Speed Heading
2026-05-07 17:36 43.99482 -88.55579 777 ft 0 kts 262°
2026-05-07 17:37 43.99470 -88.55567 777 ft 7 kts 108°
2026-05-07 17:37 43.99438 -88.55480 777 ft 14 kts 122°
2026-05-07 17:37 43.99366 -88.55418 777 ft 17 kts 180°
2026-05-07 17:37 43.99264 -88.55420 778 ft 12 kts 181°
2026-05-07 17:38 43.99202 -88.55425 781 ft 5 kts 179°
2026-05-07 17:38 43.99161 -88.55460 783 ft 13 kts 238°
2026-05-07 17:38 43.99153 -88.55482 783 ft 0 kts 247°
2026-05-07 17:40 43.99146 -88.55670 783 ft 45 kts 271°
2026-05-07 17:40 43.99149 -88.56306 786 ft 83 kts 271°
2026-05-07 17:40 43.99155 -88.57173 884 ft 92 kts 270°
2026-05-07 17:40 43.99366 -88.58037 928 ft 105 kts 322°
2026-05-07 17:41 44.00034 -88.58200 1218 ft 92 kts 354°
2026-05-07 17:41 44.00616 -88.58225 1549 ft 79 kts 355°
2026-05-07 17:41 44.01032 -88.58599 1609 ft 85 kts 276°
2026-05-07 17:41 44.00645 -88.59276 1614 ft 111 kts 203°
2026-05-07 17:42 43.99860 -88.58989 1626 ft 131 kts 144°
2026-05-07 17:42 43.99177 -88.58089 1617 ft 137 kts 140°
2026-05-07 17:42 43.98480 -88.57184 1616 ft 137 kts 140°
2026-05-07 17:42 43.97784 -88.56284 1618 ft 137 kts 140°
2026-05-07 17:43 43.97096 -88.55350 1612 ft 140 kts 133°
2026-05-07 17:43 43.96466 -88.54326 1697 ft 134 kts 145°
2026-05-07 17:43 43.95701 -88.53810 1843 ft 126 kts 170°
2026-05-07 17:43 43.94826 -88.53441 1781 ft 135 kts 171°
2026-05-07 17:44 43.93928 -88.53086 1788 ft 132 kts 171°
2026-05-07 17:44 43.93043 -88.52751 1780 ft 132 kts 171°
2026-05-07 17:44 43.92169 -88.52413 1776 ft 130 kts 171°
2026-05-07 17:44 43.91337 -88.51887 1768 ft 134 kts 155°
2026-05-07 17:45 43.90505 -88.51808 1775 ft 117 kts 206°
2026-05-07 17:45 43.89861 -88.52129 1780 ft 119 kts 207°
2026-05-07 17:45 43.89092 -88.52550 1779 ft 119 kts 210°
2026-05-07 17:45 43.88321 -88.52957 1781 ft 119 kts 209°
2026-05-07 17:46 43.87545 -88.53383 1792 ft 121 kts 210°
2026-05-07 17:46 43.86717 -88.53561 1770 ft 131 kts 170°
2026-05-07 17:46 43.85984 -88.52748 1790 ft 140 kts 140°
2026-05-07 17:46 43.85307 -88.51792 1789 ft 138 kts 140°
2026-05-07 17:47 43.84637 -88.50859 1790 ft 135 kts 139°
2026-05-07 17:47 43.83963 -88.49957 1783 ft 135 kts 140°
2026-05-07 17:47 43.83288 -88.49069 1788 ft 135 kts 140°
2026-05-07 17:47 43.82607 -88.48152 1790 ft 139 kts 141°
2026-05-07 17:48 43.81922 -88.47209 1775 ft 138 kts 139°
2026-05-07 17:48 43.81234 -88.46283 1779 ft 138 kts 140°
2026-05-07 17:48 43.80547 -88.45367 1779 ft 137 kts 140°
2026-05-07 17:48 43.79878 -88.44433 1774 ft 138 kts 129°
2026-05-07 17:49 43.79355 -88.43299 1785 ft 143 kts 126°
2026-05-07 17:49 43.78829 -88.42107 1780 ft 146 kts 124°
2026-05-07 17:49 43.78297 -88.40921 1789 ft 144 kts 125°
2026-05-07 17:49 43.77750 -88.39731 1615 ft 151 kts 125°
2026-05-07 17:50 43.77179 -88.38511 1407 ft 152 kts 125°
2026-05-07 17:50 43.76603 -88.37300 1205 ft 150 kts 124°
2026-05-07 17:50 43.76016 -88.36135 1074 ft 143 kts 125°
2026-05-07 17:50 43.75481 -88.35079 1176 ft 133 kts 124°
2026-05-07 17:51 43.74952 -88.34020 1140 ft 137 kts 125°
2026-05-07 17:51 43.74448 -88.33013 1453 ft 114 kts 126°
2026-05-07 17:51 43.74046 -88.32162 1781 ft 109 kts 124°
2026-05-07 17:51 43.73589 -88.31223 1798 ft 125 kts 125°
2026-05-07 17:52 43.73090 -88.30185 1796 ft 133 kts 125°
2026-05-07 17:52 43.72560 -88.29125 1794 ft 135 kts 126°
2026-05-07 17:52 43.72051 -88.28012 1792 ft 141 kts 118°
2026-05-07 17:52 43.71637 -88.26776 1794 ft 143 kts 116°
2026-05-07 17:53 43.71210 -88.25546 1784 ft 142 kts 116°
2026-05-07 17:53 43.70887 -88.24273 1776 ft 141 kts 102°
2026-05-07 17:53 43.70668 -88.22931 1785 ft 144 kts 101°
2026-05-07 17:53 43.70497 -88.21574 1789 ft 143 kts 99°
2026-05-07 17:54 43.70320 -88.20212 1787 ft 147 kts 99°
2026-05-07 17:54 43.70138 -88.18848 1783 ft 145 kts 99°
2026-05-07 17:54 43.70024 -88.17482 1783 ft 142 kts 95°
2026-05-07 17:54 43.69931 -88.16125 1782 ft 141 kts 94°
2026-05-07 17:55 43.69841 -88.14769 1780 ft 144 kts 95°
2026-05-07 17:55 43.69808 -88.13387 1784 ft 143 kts 85°
2026-05-07 17:55 43.69855 -88.12021 1790 ft 142 kts 88°
2026-05-07 17:55 43.69875 -88.10669 1790 ft 140 kts 87°
2026-05-07 17:56 43.69914 -88.09321 1780 ft 142 kts 86°
2026-05-07 17:56 43.69978 -88.07961 1798 ft 141 kts 88°
2026-05-07 17:56 43.70039 -88.06583 1778 ft 145 kts 86°
2026-05-07 17:56 43.70077 -88.05225 1777 ft 143 kts 86°
2026-05-07 17:57 43.70129 -88.03872 1787 ft 142 kts 88°